User: anonymous   Login
Location: Unspecified
(0.0000°N, 0.0000°E)
Time: 23:54:43
(UTC+00:00)
Language:

AMOS 1 - Orbit

View from above orbital plane
View from above orbital plane
View from above satellite
View from above satellite

Ground track
Ground track

The orbit data is extracted from the following two-line orbital elements,

1 23865U 96030B   15087.54642633 -.00000150  00000-0  00000+0 0  9992
2 23865 005.6167 059.9401 0008730 085.1270 067.1172 00.97118081 68766
Epoch (UTC): 28 March 2015 13:06:51
Eccentricity: 0.0008730
inclination: 5.6167°
perigee height: 36656 km
apogee height: 36732 km
right ascension of ascending node: 59.9401°
argument of perigee: 85.1270°
revolutions per day: 0.97118081
mean anomaly at epoch: 67.1172°
orbit number at epoch: 6876

The dashed part of the orbit path shows where the satellite is in the earth's shadow,  

DLR